When you browse on this site, cookies collect data to enhance your experience and personalize the content and advertising you see.
Visit our Privacy Policy to learn more. By continuing to use the site, you agree to this use of cookies and data.

Hourly Weather Panabá

Today, 6 July, Monday

Time Temperature Precipitation Wind Pressure Humidity
00:00 +26°C° 0 mm 3 mps 760 mmHg 96%
01:00 +26°C° 0 mm 2 mps 759 mmHg 96%
02:00 +25°C° 0 mm 2 mps 759 mmHg 96%
03:00 +25°C° 0 mm 2 mps 758 mmHg 96%
04:00 +25°C° 0 mm 2 mps 759 mmHg 96%
05:00 +25°C° 0 mm 2 mps 759 mmHg 96%
06:00 +25°C° 0 mm 2 mps 760 mmHg 96%
07:00 +27°C° 0 mm 3 mps 760 mmHg 89%
08:00 +29°C° 0 mm 3 mps 760 mmHg 82%
09:00 +32°C° 0 mm 4 mps 760 mmHg 75%
10:00 +33°C° 0 mm 4 mps 760 mmHg 69%
11:00 +35°C° 0 mm 4 mps 760 mmHg 63%
12:00 +36°C° 0 mm 4 mps 760 mmHg 57%
13:00 +36°C° 0 mm 4 mps 760 mmHg 55%
14:00 +37°C° 0 mm 4 mps 759 mmHg 53%
15:00 +37°C° 0 mm 4 mps 758 mmHg 52%
16:00 +35°C° 0 mm 4 mps 759 mmHg 57%
17:00 +34°C° 0 mm 4 mps 759 mmHg 62%
18:00 +32°C° 0 mm 4 mps 759 mmHg 68%
19:00 +30°C° 0 mm 4 mps 759 mmHg 72%
20:00 +29°C° 0 mm 4 mps 760 mmHg 77%
21:00 +28°C° 0 mm 4 mps 760 mmHg 82%
22:00 +27°C° 0 mm 3 mps 760 mmHg 86%
23:00 +27°C° 0 mm 3 mps 760 mmHg 90%

Tomorrow, 7 July, Tuesday

Time Temperature Precipitation Wind Pressure Humidity
00:00 +26°C° 0 mm 2 mps 760 mmHg 94%
01:00 +26°C° 0 mm 2 mps 760 mmHg 95%
02:00 +26°C° 0 mm 2 mps 760 mmHg 95%
03:00 +25°C° 0 mm 2 mps 760 mmHg 96%
04:00 +26°C° 0 mm 2 mps 760 mmHg 96%
05:00 +26°C° 0 mm 2 mps 760 mmHg 96%
06:00 +26°C° 0 mm 2 mps 760 mmHg 96%
07:00 +28°C° 0 mm 3 mps 761 mmHg 88%
08:00 +29°C° 0 mm 3 mps 761 mmHg 81%
09:00 +32°C° 0 mm 4 mps 761 mmHg 73%
10:00 +33°C° 0 mm 4 mps 761 mmHg 68%
11:00 +35°C° 0 mm 4 mps 761 mmHg 64%
12:00 +36°C° 0 mm 4 mps 760 mmHg 59%
13:00 +35°C° 0.3 mm 4 mps 760 mmHg 62%
14:00 +35°C° 0.3 mm 5 mps 759 mmHg 65%
15:00 +34°C° 0.3 mm 5 mps 759 mmHg 67%
16:00 +33°C° 0.7 mm 5 mps 759 mmHg 72%
17:00 +32°C° 0.7 mm 5 mps 759 mmHg 77%
18:00 +30°C° 0.7 mm 5 mps 759 mmHg 82%
19:00 +29°C° 0 mm 4 mps 759 mmHg 84%
20:00 +29°C° 0 mm 4 mps 760 mmHg 86%
21:00 +28°C° 0 mm 3 mps 760 mmHg 88%
22:00 +28°C° 0 mm 3 mps 760 mmHg 91%
23:00 +27°C° 0 mm 3 mps 760 mmHg 93%

Day after tomorrow, 8 July, Wednesday

Time Temperature Precipitation Wind Pressure Humidity
00:00 +27°C° 0 mm 2 mps 760 mmHg 95%
01:00 +27°C° 0 mm 2 mps 760 mmHg 96%
02:00 +26°C° 0 mm 2 mps 760 mmHg 96%
03:00 +26°C° 0 mm 2 mps 759 mmHg 96%
04:00 +26°C° 0 mm 2 mps 759 mmHg 96%
05:00 +27°C° 0 mm 2 mps 759 mmHg 95%
06:00 +27°C° 0 mm 2 mps 759 mmHg 95%
07:00 +28°C° 0 mm 2 mps 760 mmHg 87%
08:00 +30°C° 0 mm 3 mps 760 mmHg 80%
09:00 +33°C° 0 mm 3 mps 760 mmHg 72%
10:00 +34°C° 0 mm 3 mps 760 mmHg 67%
11:00 +35°C° 0 mm 3 mps 759 mmHg 62%
12:00 +36°C° 0 mm 3 mps 759 mmHg 57%
13:00 +36°C° 0 mm 4 mps 758 mmHg 58%
14:00 +36°C° 0 mm 4 mps 758 mmHg 59%
15:00 +36°C° 0 mm 5 mps 757 mmHg 61%
16:00 +34°C° 0.2 mm 5 mps 757 mmHg 67%
17:00 +33°C° 0.2 mm 5 mps 757 mmHg 73%
18:00 +30°C° 0.2 mm 5 mps 757 mmHg 79%
19:00 +30°C° 0 mm 5 mps 758 mmHg 81%
20:00 +29°C° 0 mm 4 mps 759 mmHg 82%
21:00 +28°C° 0 mm 3 mps 759 mmHg 84%
22:00 +28°C° 0 mm 3 mps 759 mmHg 87%
23:00 +27°C° 0 mm 2 mps 759 mmHg 90%

9 July, Thursday

Time Temperature Precipitation Wind Pressure Humidity
00:00 +27°C° 0 mm 2 mps 759 mmHg 92%
01:00 +27°C° 0 mm 2 mps 759 mmHg 93%
02:00 +26°C° 0 mm 2 mps 758 mmHg 94%
03:00 +26°C° 0 mm 2 mps 758 mmHg 95%
04:00 +26°C° 0 mm 2 mps 758 mmHg 95%
05:00 +27°C° 0 mm 2 mps 758 mmHg 95%
06:00 +27°C° 0 mm 2 mps 758 mmHg 95%
07:00 +29°C° 0 mm 2 mps 759 mmHg 86%
08:00 +30°C° 0 mm 2 mps 759 mmHg 78%
09:00 +33°C° 0 mm 3 mps 759 mmHg 69%
10:00 +34°C° 0 mm 3 mps 759 mmHg 66%
11:00 +35°C° 0 mm 3 mps 759 mmHg 62%
12:00 +36°C° 0 mm 3 mps 759 mmHg 59%
13:00 +35°C° 1.8 mm 4 mps 758 mmHg 64%
14:00 +34°C° 1.8 mm 4 mps 758 mmHg 70%
15:00 +33°C° 1.8 mm 5 mps 757 mmHg 75%
16:00 +32°C° 0.7 mm 5 mps 757 mmHg 78%
17:00 +30°C° 0.7 mm 4 mps 758 mmHg 81%
18:00 +29°C° 0.7 mm 4 mps 758 mmHg 83%
19:00 +29°C° 0 mm 4 mps 758 mmHg 85%
20:00 +28°C° 0 mm 4 mps 759 mmHg 87%
21:00 +28°C° 0 mm 4 mps 759 mmHg 89%
22:00 +28°C° 0 mm 3 mps 759 mmHg 91%
23:00 +27°C° 0 mm 3 mps 759 mmHg 93%

10 July, Friday

Time Temperature Precipitation Wind Pressure Humidity
00:00 +27°C° 0 mm 2 mps 759 mmHg 95%
01:00 +26°C° 0 mm 2 mps 759 mmHg 95%
02:00 +26°C° 0 mm 2 mps 759 mmHg 95%
03:00 +26°C° 0 mm 2 mps 759 mmHg 96%
04:00 +26°C° 0 mm 2 mps 759 mmHg 95%
05:00 +26°C° 0 mm 2 mps 759 mmHg 95%
06:00 +26°C° 0 mm 2 mps 759 mmHg 95%
07:00 +28°C° 0 mm 2 mps 760 mmHg 87%
08:00 +30°C° 0 mm 2 mps 760 mmHg 80%
09:00 +33°C° 0 mm 3 mps 760 mmHg 72%
10:00 +34°C° 0 mm 3 mps 760 mmHg 68%
11:00 +34°C° 0 mm 3 mps 760 mmHg 64%
12:00 +35°C° 0 mm 3 mps 760 mmHg 60%
13:00 +34°C° 2.1 mm 3 mps 760 mmHg 67%
14:00 +33°C° 2.1 mm 3 mps 759 mmHg 73%
15:00 +32°C° 2.1 mm 4 mps 759 mmHg 80%
16:00 +31°C° 0.4 mm 3 mps 759 mmHg 82%
17:00 +30°C° 0.4 mm 3 mps 759 mmHg 83%
18:00 +30°C° 0.4 mm 3 mps 759 mmHg 85%
19:00 +29°C° 0 mm 3 mps 760 mmHg 87%
20:00 +28°C° 0 mm 3 mps 760 mmHg 89%
21:00 +28°C° 0 mm 2 mps 760 mmHg 91%
22:00 +27°C° 0 mm 2 mps 760 mmHg 92%
23:00 +27°C° 0 mm 2 mps 760 mmHg 93%

11 July, Saturday

Time Temperature Precipitation Wind Pressure Humidity
00:00 +27°C° 0 mm 2 mps 760 mmHg 94%
01:00 +26°C° 0 mm 2 mps 760 mmHg 95%
02:00 +26°C° 0 mm 2 mps 760 mmHg 95%
03:00 +26°C° 0 mm 2 mps 760 mmHg 96%
04:00 +26°C° 0 mm 2 mps 760 mmHg 96%
05:00 +26°C° 0 mm 2 mps 760 mmHg 95%
06:00 +26°C° 0 mm 1 mps 760 mmHg 95%
07:00 +28°C° 0.1 mm 1 mps 760 mmHg 88%
08:00 +30°C° 0.1 mm 1 mps 761 mmHg 81%
09:00 +31°C° 0.1 mm 1 mps 761 mmHg 74%
10:00 +32°C° 0.6 mm 2 mps 761 mmHg 70%
11:00 +34°C° 0.6 mm 2 mps 761 mmHg 67%
12:00 +35°C° 0.6 mm 3 mps 761 mmHg 63%
13:00 +35°C° 0.1 mm 3 mps 760 mmHg 63%
14:00 +35°C° 0.1 mm 4 mps 760 mmHg 63%
15:00 +35°C° 0.1 mm 4 mps 759 mmHg 63%
16:00 +33°C° 0.4 mm 4 mps 759 mmHg 70%
17:00 +32°C° 0.4 mm 4 mps 759 mmHg 77%
18:00 +29°C° 0.4 mm 3 mps 759 mmHg 84%
19:00 +29°C° 0.2 mm 3 mps 760 mmHg 85%
20:00 +28°C° 0.2 mm 3 mps 760 mmHg 87%
21:00 +27°C° 0.2 mm 3 mps 760 mmHg 88%
22:00 +27°C° 0 mm 2 mps 760 mmHg 89%
23:00 +26°C° 0 mm 2 mps 760 mmHg 90%
Show more